Weather History for Okinawa, Japan

Change the Weather History Date:

Sunday, September 16, 2012

  Actual Average Record
Temperature  
Mean Temperature 80 °F -  
Max Temperature 82 °F 82 °F 91 °F (1999)
Min Temperature 77 °F 71 °F 73 °F (2002)
Cooling Degree Days 14    
Growing Degree Days 30 (Base 50)    
Moisture  
Dew Point 79 °F    
Average Humidity 99    
Maximum Humidity 100    
Minimum Humidity 83    
Precipitation  
Precipitation 2.92 in - - ()
Sea Level Pressure  
Sea Level Pressure 28.98 in    
Wind  
Wind Speed 42 mph ()    
Max Wind Speed 58 mph    
Max Gust Speed 79 mph    
Visibility 3.3 miles    
Events Fog , Rain    
Averages and records for this station are not official NWS values.
T = Trace of Precipitation, MM = Missing Value Source: Averaged Metar Reports

Daily Weather History Graph

Daily Weather History Graph

Search for Another Location

Airport:

Trip Planner

Search our weather history database for the weather conditions in past years. The results will help you decide how hot, cold, wet, or windy it might be!

Date:

Astronomy

Sep. 16, 2012 Rise Set
Actual Time 6:14 AM JST 6:32 PM JST
Civil Twilight 5:51 AM JST 6:55 PM JST
Nautical Twilight 5:24 AM JST 7:22 PM JST
Astronomical Twilight 4:57 AM JST 7:49 PM JST
Moon 6:07 AM JST (9/16) 6:24 PM JST (9/16)
Length of Visible Light 13h 03m
Length of Day
12h 17m
Waxing Crescent, 0% of the Moon is Illuminated
Sep 16
Waxing Crescent
Sep 23
First Quarter
Sep 30
Full
Oct 8
Last Quarter
Oct 15
New

Hourly Weather History & Observations

Time (JST) Temp. Heat Index Dew Point Humidity Pressure Visibility Wind Dir Wind Speed Gust Speed Precip Events Conditions
12:02 AM 78.8 °F - 78.8 °F 100% 29.23 in 2.0 mi NE 38.0 mph 55.2 mph N/A Rain Heavy Rain
12:12 AM 78.8 °F - 78.8 °F 100% 29.22 in 1.8 mi ENE 48.3 mph 59.8 mph N/A Rain Heavy Rain
12:14 AM 78.8 °F - 78.8 °F 100% 29.22 in 2.0 mi NE 46.0 mph 59.8 mph N/A Rain Heavy Rain
12:16 AM 78.8 °F - 78.8 °F 100% 29.23 in 2.0 mi ENE 40.3 mph 59.8 mph N/A Rain Heavy Rain
12:17 AM 78.8 °F - 78.8 °F 100% 29.22 in 2.0 mi ENE 40.3 mph 59.8 mph N/A Rain Heavy Rain
12:21 AM 78.8 °F - 78.8 °F 100% 29.21 in 3.0 mi ENE 36.8 mph 58.7 mph N/A Rain Rain
12:34 AM 78.8 °F - 78.8 °F 100% 29.20 in 4.0 mi ENE 34.5 mph 59.8 mph N/A Rain Rain
12:35 AM 78.8 °F - 78.8 °F 100% 29.20 in 3.0 mi ENE 38.0 mph 58.7 mph N/A Rain Heavy Rain
12:37 AM 78.8 °F - 78.8 °F 100% 29.20 in 3.0 mi ENE 41.4 mph 58.7 mph N/A Rain Heavy Rain
12:38 AM 78.8 °F - 78.8 °F 100% 29.20 in 3.0 mi ENE 38.0 mph 58.7 mph N/A Rain Heavy Rain
12:41 AM 78.8 °F - 78.8 °F 100% 29.19 in 3.0 mi NE 38.0 mph 58.7 mph N/A Rain Heavy Rain
12:44 AM 78.8 °F - 78.8 °F 100% 29.18 in 3.0 mi ENE 42.6 mph 55.2 mph N/A Rain Heavy Rain
12:55 AM 78.3 °F - 78.3 °F 100% 29.16 in 3.0 mi NE 41.4 mph 54.1 mph 0.20 in Rain Heavy Rain
12:57 AM 78.8 °F - 78.8 °F 100% 29.16 in 3.0 mi NE 43.7 mph 54.1 mph N/A Rain Heavy Rain
12:59 AM 78.8 °F - 78.8 °F 100% 29.15 in 4.0 mi NE 42.6 mph 54.1 mph N/A Rain Light Rain
1:07 AM 78.8 °F - 78.8 °F 100% 29.14 in 4.0 mi NE 40.3 mph 63.3 mph N/A Rain Light Rain
1:13 AM 78.8 °F - 78.8 °F 100% 29.13 in 3.0 mi NE 41.4 mph 63.3 mph N/A Rain Heavy Rain
1:14 AM 78.8 °F - 78.8 °F 100% 29.13 in 2.5 mi NE 42.6 mph 52.9 mph N/A Rain Heavy Rain
1:15 AM 78.8 °F - 78.8 °F 100% 29.13 in 2.0 mi NE 36.8 mph 52.9 mph N/A Rain Heavy Rain
1:16 AM 78.8 °F - 78.8 °F 100% 29.13 in 1.8 mi NE 39.1 mph 52.9 mph N/A Rain Heavy Rain
1:17 AM 78.8 °F - 78.8 °F 100% 29.13 in 1.5 mi NE 42.6 mph 52.9 mph N/A Rain Heavy Rain
1:19 AM 78.8 °F - 78.8 °F 100% 29.12 in 1.2 mi NE 43.7 mph 57.5 mph N/A Rain Heavy Rain
1:20 AM 78.8 °F - 78.8 °F 100% 29.11 in 1.0 mi NE 48.3 mph 59.8 mph N/A Rain Heavy Rain
1:28 AM 77.0 °F - 77.0 °F 100% 29.11 in 1.2 mi NE 43.7 mph 59.8 mph N/A Rain Heavy Rain
1:31 AM 77.0 °F - 77.0 °F 100% 29.10 in 1.5 mi ENE 48.3 mph 59.8 mph N/A Rain Heavy Rain
1:32 AM 77.0 °F - 77.0 °F 100% 29.10 in 1.5 mi NE 46.0 mph 59.8 mph N/A Rain Heavy Rain
1:33 AM 77.0 °F - 77.0 °F 100% 29.10 in 1.8 mi NE 44.9 mph 59.8 mph N/A Rain Rain
1:34 AM 77.0 °F - 77.0 °F 100% 29.10 in 2.0 mi NE 46.0 mph 63.3 mph N/A Rain Rain
1:38 AM 77.0 °F - 77.0 °F 100% 29.08 in 3.0 mi NE 47.2 mph 64.4 mph N/A Rain Rain
1:46 AM 77.0 °F - 77.0 °F 100% 29.06 in 3.0 mi NE 46.0 mph 65.6 mph N/A Rain Heavy Rain
1:49 AM 77.0 °F - 77.0 °F 100% 29.07 in 2.5 mi NE 43.7 mph 65.6 mph N/A Rain Heavy Rain
1:53 AM 77.0 °F - 77.0 °F 100% 29.06 in 2.0 mi NE 41.4 mph 58.7 mph N/A Rain Heavy Rain
1:54 AM 77.0 °F - 77.0 °F 100% 29.06 in 1.8 mi NE 41.4 mph 58.7 mph N/A Rain Heavy Rain
1:55 AM 77.4 °F - 77.4 °F 100% 29.06 in 1.5 mi NE 41.4 mph 58.7 mph 0.34 in Rain Heavy Rain
1:56 AM 77.0 °F - 77.0 °F 100% 29.06 in 1.2 mi NE 44.9 mph 58.7 mph N/A Rain Heavy Rain
1:58 AM 77.0 °F - 77.0 °F 100% 29.05 in 1.0 mi NE 42.6 mph 56.4 mph N/A Rain Heavy Rain
2:05 AM 77.0 °F - 77.0 °F 100% 29.03 in 1.2 mi NE 43.7 mph 59.8 mph N/A Rain Heavy Rain
2:07 AM 77.0 °F - 77.0 °F 100% 29.02 in 1.5 mi NE 42.6 mph 59.8 mph N/A Rain Heavy Rain
2:09 AM 77.0 °F - 77.0 °F 100% 29.02 in 1.8 mi NE 46.0 mph 59.8 mph N/A Rain Heavy Rain
2:10 AM 77.0 °F - 77.0 °F 100% 29.02 in 1.8 mi NE 46.0 mph 59.8 mph N/A Rain Heavy Rain
2:11 AM 77.0 °F - 77.0 °F 100% 29.02 in 1.8 mi NE 41.4 mph 56.4 mph N/A Rain Heavy Rain
2:12 AM 77.0 °F - 77.0 °F 100% 29.01 in 1.8 mi NE 43.7 mph 56.4 mph N/A Rain Heavy Rain
2:14 AM 77.0 °F - 77.0 °F 100% 29.01 in 1.8 mi NE 42.6 mph 56.4 mph N/A Rain Heavy Rain
2:16 AM 77.0 °F - 77.0 °F 100% 29.01 in 1.8 mi NE 43.7 mph 56.4 mph N/A Rain Heavy Rain
2:17 AM 77.0 °F - 77.0 °F 100% 29.00 in 1.8 mi NE 44.9 mph 56.4 mph N/A Rain Heavy Rain
2:20 AM 78.8 °F - 78.8 °F 100% 29.00 in 1.8 mi NE 47.2 mph 58.7 mph N/A Rain Heavy Rain
2:23 AM 78.8 °F - 78.8 °F 100% 29.00 in 2.0 mi NE 46.0 mph 58.7 mph N/A Rain Heavy Rain
2:27 AM 78.8 °F - 78.8 °F 100% 29.00 in 2.5 mi ENE 43.7 mph 58.7 mph N/A Rain Heavy Rain
2:28 AM 78.8 °F - 78.8 °F 100% 28.99 in 2.5 mi NE 40.3 mph 58.7 mph N/A Rain Heavy Rain
2:31 AM 78.8 °F - 78.8 °F 100% 28.98 in 3.0 mi NE 47.2 mph 58.7 mph N/A Rain Rain
2:34 AM 78.8 °F - 78.8 °F 100% 28.98 in 2.5 mi NE 44.9 mph 61.0 mph N/A Rain Rain
2:35 AM 78.8 °F - 78.8 °F 100% 28.98 in 2.5 mi NE 48.3 mph 61.0 mph N/A Rain Heavy Rain
2:41 AM 78.8 °F - 78.8 °F 100% 28.96 in 2.0 mi NE 48.3 mph 61.0 mph N/A Rain Heavy Rain
2:43 AM 78.8 °F - 78.8 °F 100% 28.95 in 1.8 mi NE 49.5 mph 67.9 mph N/A Rain Heavy Rain
2:44 AM 78.8 °F - 78.8 °F 100% 28.95 in 1.8 mi NE 52.9 mph 67.9 mph N/A Rain Heavy Rain
2:47 AM 78.8 °F - 78.8 °F 100% 28.94 in 1.5 mi NE 44.9 mph 67.9 mph N/A Rain Heavy Rain
2:50 AM 78.8 °F - 78.8 °F 100% 28.93 in 1.2 mi NE 52.9 mph 67.9 mph N/A Rain Heavy Rain
2:55 AM 78.3 °F - 78.3 °F 100% 28.93 in 1.2 mi NE 44.9 mph 61.0 mph 0.38 in Rain Heavy Rain
2:59 AM 78.8 °F - 78.8 °F 100% 28.91 in 1.5 mi NE 47.2 mph 67.9 mph N/A Rain Heavy Rain
3:10 AM 78.8 °F - 78.8 °F 100% 28.89 in 1.2 mi NE 46.0 mph 69.0 mph N/A Rain Heavy Rain
3:13 AM 78.8 °F - 78.8 °F 100% 28.88 in 1.5 mi NE 46.0 mph 69.0 mph N/A Rain Heavy Rain
3:14 AM 78.8 °F - 78.8 °F 100% 28.87 in 1.2 mi NE 46.0 mph 69.0 mph N/A Rain Heavy Rain
3:17 AM 78.8 °F - 78.8 °F 100% 28.86 in 1.0 mi NNE 47.2 mph 69.0 mph N/A Rain Heavy Rain
3:22 AM 78.8 °F - 77.0 °F 94% 28.85 in 1.0 mi NE 49.5 mph 66.7 mph N/A Rain Heavy Rain
3:23 AM 78.8 °F - 77.0 °F 94% 28.85 in 1.0 mi NE 46.0 mph 66.7 mph N/A Rain Heavy Rain
3:26 AM 77.0 °F - 77.0 °F 100% 28.84 in 1.2 mi NE 48.3 mph 66.7 mph N/A Rain Heavy Rain
3:28 AM 77.0 °F - 77.0 °F 100% 28.84 in 1.5 mi NE 51.8 mph 66.7 mph N/A Rain Heavy Rain
3:30 AM 77.0 °F - 77.0 °F 100% 28.83 in 1.8 mi NE 47.2 mph 66.7 mph N/A Rain Heavy Rain
3:31 AM 77.0 °F - 77.0 °F 100% 28.84 in 1.8 mi NE 47.2 mph 66.7 mph N/A Rain Heavy Rain
3:32 AM 78.8 °F - 77.0 °F 94% 28.83 in 2.0 mi NE 44.9 mph 63.3 mph N/A Rain Heavy Rain
3:34 AM 78.8 °F - 78.8 °F 100% 28.83 in 2.5 mi NE 54.1 mph 63.3 mph N/A Rain Heavy Rain
3:36 AM 78.8 °F - 78.8 °F 100% 28.82 in 3.0 mi NE 51.8 mph 64.4 mph N/A Rain Heavy Rain
3:39 AM 78.8 °F - 78.8 °F 100% 28.81 in 3.0 mi NNE 47.2 mph 64.4 mph N/A Rain Heavy Rain
3:46 AM 78.8 °F - 78.8 °F 100% 28.80 in 4.0 mi NE 50.6 mph 69.0 mph N/A Rain Rain
3:52 AM 78.8 °F - 78.8 °F 100% 28.78 in 5.0 mi NNE 48.3 mph 69.0 mph N/A Rain Rain
3:55 AM 78.3 °F - 78.3 °F 100% 28.77 in 4.0 mi NE 51.8 mph 69.0 mph 0.29 in Rain Rain
4:03 AM 78.8 °F - 78.8 °F 100% 28.74 in 3.0 mi NNE 50.6 mph 65.6 mph N/A Rain Heavy Rain
4:04 AM 78.8 °F - 78.8 °F 100% 28.74 in 3.0 mi NNE 49.5 mph 63.3 mph N/A Rain Heavy Rain
4:14 AM 78.8 °F - 78.8 °F 100% 28.72 in 2.5 mi NNE 38.0 mph 64.4 mph N/A Rain Heavy Rain
4:16 AM 78.8 °F - 78.8 °F 100% 28.70 in 2.5 mi NNE 47.2 mph 64.4 mph N/A Rain Heavy Rain
4:18 AM 78.8 °F - 78.8 °F 100% 28.69 in 1.8 mi NNE 48.3 mph 64.4 mph N/A Rain Heavy Rain
4:20 AM 78.8 °F - 78.8 °F 100% 28.69 in 1.5 mi NNE 46.0 mph 64.4 mph N/A Rain Heavy Rain
4:21 AM 78.8 °F - 78.8 °F 100% 28.68 in 1.5 mi NNE 44.9 mph 64.4 mph N/A Rain Heavy Rain
4:28 AM 78.8 °F - 78.8 °F 100% 28.66 in 1.8 mi NNE 41.4 mph 65.6 mph N/A Rain Heavy Rain
4:32 AM 78.8 °F - 78.8 °F 100% 28.64 in 1.8 mi North 48.3 mph 65.6 mph N/A Rain Heavy Rain
4:37 AM 78.8 °F - 78.8 °F 100% 28.63 in 1.8 mi North 36.8 mph 65.6 mph N/A Rain Heavy Rain
4:38 AM 78.8 °F - 78.8 °F 100% 28.62 in 2.0 mi North 38.0 mph 65.6 mph N/A Rain Heavy Rain
4:39 AM 78.8 °F - 78.8 °F 100% 28.62 in 2.0 mi North 39.1 mph 65.6 mph N/A Rain Heavy Rain
4:43 AM 78.8 °F - 78.8 °F 100% 28.61 in 3.0 mi North 42.6 mph 65.6 mph N/A Rain Heavy Rain
4:51 AM 78.8 °F - 78.8 °F 100% 28.57 in 2.5 mi North 46.0 mph 63.3 mph N/A Rain Heavy Rain
4:54 AM 78.8 °F - 78.8 °F 100% 28.56 in 1.8 mi North 43.7 mph 63.3 mph N/A Rain Heavy Rain
4:55 AM 78.6 °F - 78.6 °F 100% 28.56 in 1.2 mi North 43.7 mph 59.8 mph 0.42 in Rain Heavy Rain
4:56 AM 78.8 °F - 78.8 °F 100% 28.56 in 1.2 mi North 42.6 mph 59.8 mph N/A Rain Heavy Rain
4:57 AM 78.8 °F - 78.8 °F 100% 28.55 in 1.0 mi North 41.4 mph 59.8 mph N/A Rain Heavy Rain
5:04 AM 78.8 °F - 78.8 °F 100% 28.53 in 1.2 mi North 42.6 mph 69.0 mph N/A Rain Heavy Rain
5:06 AM 78.8 °F - 78.8 °F 100% 28.52 in 1.5 mi North 44.9 mph 69.0 mph N/A Rain Heavy Rain
5:09 AM 78.8 °F - 78.8 °F 100% 28.51 in 1.8 mi North 43.7 mph 72.5 mph N/A Rain Heavy Rain
5:13 AM 78.8 °F - 78.8 °F 100% 28.50 in 2.0 mi North 36.8 mph 72.5 mph N/A Rain Heavy Rain
5:20 AM 78.8 °F - 78.8 °F 100% 28.47 in 2.5 mi North 47.2 mph 65.6 mph N/A Rain Heavy Rain
5:24 AM 78.8 °F - 78.8 °F 100% 28.46 in 3.0 mi NNW 41.4 mph 59.8 mph N/A Rain Heavy Rain
5:28 AM 78.8 °F - 78.8 °F 100% 28.45 in 3.0 mi NNW 41.4 mph 61.0 mph N/A Rain Heavy Rain
5:30 AM 78.8 °F - 78.8 °F 100% 28.45 in 3.0 mi NNW 47.2 mph 61.0 mph N/A Rain Rain
5:37 AM 78.8 °F - 78.8 °F 100% 28.43 in 2.5 mi NNW 43.7 mph 64.4 mph N/A Rain Heavy Rain
5:40 AM 78.8 °F - 78.8 °F 100% 28.42 in 2.0 mi NNW 48.3 mph 64.4 mph N/A Rain Heavy Rain
5:41 AM 78.8 °F - 78.8 °F 100% 28.42 in 2.0 mi NNW 49.5 mph 64.4 mph N/A Rain Heavy Rain
5:48 AM 78.8 °F - 78.8 °F 100% 28.41 in 2.0 mi NNW 52.9 mph 69.0 mph N/A Rain Rain
5:49 AM 78.8 °F - 78.8 °F 100% 28.40 in 2.5 mi NNW 54.1 mph 69.0 mph N/A Rain Rain
5:51 AM 78.8 °F - 78.8 °F 100% 28.41 in 2.5 mi NNW 44.9 mph 69.0 mph N/A Rain Rain
5:54 AM 78.8 °F - 78.8 °F 100% 28.41 in 3.0 mi NNW 47.2 mph 65.6 mph N/A Rain Rain
5:55 AM 79.0 °F - 79.0 °F 100% 28.40 in 3.0 mi NNW 47.2 mph 65.6 mph 0.27 in Rain Light Rain
6:17 AM 78.8 °F - 78.8 °F 100% 28.42 in 2.5 mi NW 43.7 mph 66.7 mph N/A Rain Rain
6:20 AM 78.8 °F - 78.8 °F 100% 28.42 in 2.5 mi NW 48.3 mph 66.7 mph N/A Rain Light Rain
6:28 AM 78.8 °F - 78.8 °F 100% 28.43 in 1.8 mi NW 54.1 mph 71.3 mph N/A Rain Light Rain
6:34 AM 78.8 °F - 78.8 °F 100% 28.44 in 2.0 mi NW 54.1 mph 73.6 mph N/A Rain Light Rain
6:36 AM 78.8 °F - 78.8 °F 100% 28.45 in 1.8 mi NW 50.6 mph 73.6 mph N/A Rain Light Rain
6:46 AM 80.6 °F 89.3 °F 80.6 °F 100% 28.47 in 2.0 mi NW 48.3 mph 72.5 mph N/A Rain Light Rain
6:52 AM 80.6 °F 89.3 °F 80.6 °F 100% 28.49 in 1.8 mi WNW 49.5 mph 66.7 mph N/A Rain Light Rain
6:55 AM 79.7 °F - 79.7 °F 100% 28.49 in 1.8 mi WNW 52.9 mph 66.7 mph 0.04 in Rain Light Rain
7:02 AM 80.6 °F 89.3 °F 80.6 °F 100% 28.51 in 2.0 mi WNW 50.6 mph 72.5 mph N/A Rain Light Rain
7:13 AM 80.6 °F 89.3 °F 80.6 °F 100% 28.54 in 1.8 mi WNW 51.8 mph 67.9 mph N/A Rain Light Rain
7:35 AM 80.6 °F 89.3 °F 80.6 °F 100% 28.61 in 2.0 mi West 49.5 mph 77.1 mph N/A Rain Light Rain
7:55 AM 80.2 °F 88.0 °F 80.2 °F 100% 28.66 in 2.0 mi West 52.9 mph 64.4 mph 0.02 in Rain Light Rain
7:56 AM 80.6 °F 89.3 °F 80.6 °F 100% 28.67 in 1.5 mi West 51.8 mph 64.4 mph N/A Rain Light Rain
7:57 AM 80.6 °F 89.3 °F 80.6 °F 100% 28.67 in 1.2 mi West 52.9 mph 64.4 mph N/A Rain Light Rain
7:58 AM 80.6 °F 89.3 °F 80.6 °F 100% 28.67 in 1.0 mi West 57.5 mph 78.3 mph N/A Rain Light Rain
8:01 AM 80.6 °F 89.3 °F 80.6 °F 100% 28.69 in 0.8 mi West 50.6 mph 78.3 mph N/A Rain Rain
8:04 AM 80.6 °F 89.3 °F 80.6 °F 100% 28.69 in 0.8 mi West 50.6 mph 78.3 mph N/A Rain Rain
8:05 AM 80.6 °F 89.3 °F 80.6 °F 100% 28.69 in 0.8 mi West 50.6 mph 78.3 mph N/A Rain Rain
8:13 AM 80.6 °F 89.3 °F 80.6 °F 100% 28.73 in 0.5 mi West 50.6 mph 66.7 mph N/A Fog , Rain Heavy Rain
8:15 AM 80.6 °F 89.3 °F 80.6 °F 100% 28.74 in 0.5 mi West 54.1 mph 66.7 mph N/A Fog , Rain Heavy Rain
8:16 AM 80.6 °F 89.3 °F 80.6 °F 100% 28.74 in 0.5 mi West 50.6 mph 66.7 mph N/A Fog , Rain Heavy Rain
8:17 AM 80.6 °F 89.3 °F 80.6 °F 100% 28.74 in 0.5 mi West 52.9 mph 66.7 mph N/A Fog , Rain Heavy Rain
8:19 AM 80.6 °F 89.3 °F 80.6 °F 100% 28.75 in 0.5 mi West 52.9 mph 65.6 mph N/A Fog , Rain Heavy Rain
8:22 AM 78.8 °F - 78.8 °F 100% 28.76 in 0.5 mi West 51.8 mph 65.6 mph N/A Fog , Rain Heavy Rain
8:26 AM 78.8 °F - 78.8 °F 100% 28.76 in 0.5 mi West 57.5 mph 71.3 mph N/A Fog , Rain Rain
8:27 AM 78.8 °F - 78.8 °F 100% 28.77 in 0.5 mi West 57.5 mph 71.3 mph N/A Fog , Rain Rain
8:29 AM 78.8 °F - 78.8 °F 100% 28.76 in 0.8 mi West 56.4 mph 77.1 mph N/A Rain Light Rain
8:32 AM 78.8 °F - 78.8 °F 100% 28.78 in 1.0 mi West 56.4 mph 77.1 mph N/A Rain Light Rain
8:34 AM 78.8 °F - 78.8 °F 100% 28.79 in 1.2 mi West 50.6 mph 77.1 mph N/A Rain Light Rain
8:36 AM 78.8 °F - 78.8 °F 100% 28.79 in 1.5 mi West 57.5 mph 77.1 mph N/A Rain Light Rain
8:39 AM 78.8 °F - 78.8 °F 100% 28.81 in 1.8 mi West 51.8 mph 67.9 mph N/A Rain Light Rain
8:43 AM 78.8 °F - 78.8 °F 100% 28.81 in 1.8 mi West 55.2 mph 67.9 mph N/A Rain Light Rain
8:48 AM 78.8 °F - 78.8 °F 100% 28.83 in 1.5 mi West 49.5 mph 67.9 mph N/A Rain Light Rain
8:49 AM 78.8 °F - 78.8 °F 100% 28.83 in 1.0 mi West 49.5 mph 67.9 mph N/A Rain Rain
8:52 AM 78.8 °F - 78.8 °F 100% 28.84 in 0.8 mi West 51.8 mph 69.0 mph N/A Rain Rain
8:55 AM 79.3 °F - 79.3 °F 100% 28.84 in 0.8 mi West 54.1 mph 73.6 mph 0.11 in Rain Rain
8:57 AM 78.8 °F - 78.8 °F 100% 28.85 in 0.8 mi West 52.9 mph 73.6 mph N/A Rain Rain
9:03 AM 78.8 °F - 78.8 °F 100% 28.86 in 0.8 mi West 54.1 mph 73.6 mph N/A Rain Rain
9:06 AM 78.8 °F - 78.8 °F 100% 28.87 in 0.8 mi West 55.2 mph 67.9 mph N/A Rain Rain
9:07 AM 78.8 °F - 78.8 °F 100% 28.87 in 0.5 mi West 52.9 mph 67.9 mph N/A Fog , Rain Rain
9:13 AM 78.8 °F - 78.8 °F 100% 28.89 in 0.5 mi West 52.9 mph 67.9 mph N/A Fog , Rain Heavy Rain
9:28 AM 78.8 °F - 78.8 °F 100% 28.93 in 0.5 mi West 51.8 mph 71.3 mph N/A Fog , Rain Heavy Rain
9:29 AM 78.8 °F - 78.8 °F 100% 28.93 in 0.2 mi West 55.2 mph 71.3 mph N/A Fog , Rain Heavy Rain
9:42 AM 78.8 °F - 78.8 °F 100% 28.97 in 0.2 mi West 56.4 mph 78.3 mph N/A Fog , Rain Heavy Rain
9:44 AM 78.8 °F - 78.8 °F 100% 28.96 in 0.2 mi West 57.5 mph 79.4 mph N/A Fog , Rain Heavy Rain
9:48 AM 78.8 °F - 78.8 °F 100% 28.97 in 0.2 mi West 55.2 mph 79.4 mph N/A Fog , Rain Heavy Rain
9:52 AM 78.8 °F - 78.8 °F 100% 28.98 in 0.2 mi West 55.2 mph 79.4 mph N/A Fog , Rain Heavy Rain
9:55 AM 78.4 °F - 78.4 °F 100% 29.00 in 0.2 mi West 52.9 mph 73.6 mph 0.41 in Fog , Rain Heavy Rain
10:11 AM 78.8 °F - 78.8 °F 100% 29.03 in 0.2 mi West 51.8 mph 70.2 mph N/A Fog , Rain Heavy Rain
10:12 AM 78.8 °F - 78.8 °F 100% 29.03 in 0.2 mi West 49.5 mph 70.2 mph N/A Fog , Rain Heavy Rain
10:13 AM 78.8 °F - 78.8 °F 100% 29.03 in 0.2 mi West 46.0 mph 70.2 mph N/A Fog , Rain Heavy Rain
10:18 AM 78.8 °F - 78.8 °F 100% 29.05 in 0.5 mi West 44.9 mph 61.0 mph N/A Fog , Rain Heavy Rain
10:23 AM 78.8 °F - 78.8 °F 100% 29.06 in 0.5 mi West 44.9 mph 61.0 mph N/A Fog , Rain Heavy Rain
10:25 AM 78.8 °F - 78.8 °F 100% 29.07 in 0.5 mi West 43.7 mph 62.1 mph N/A Fog , Rain Heavy Rain
10:26 AM 78.8 °F - 78.8 °F 100% 29.07 in 0.5 mi West 46.0 mph 62.1 mph N/A Fog , Rain Heavy Rain
10:27 AM 78.8 °F - 78.8 °F 100% 29.07 in 0.8 mi West 47.2 mph 62.1 mph N/A Rain Heavy Rain
10:28 AM 78.8 °F - 78.8 °F 100% 29.07 in 0.8 mi West 46.0 mph 62.1 mph N/A Rain Heavy Rain
10:38 AM 78.8 °F - 78.8 °F 100% 29.10 in 0.5 mi West 43.7 mph 58.7 mph N/A Fog , Rain Heavy Rain
10:39 AM 78.8 °F - 78.8 °F 100% 29.11 in 0.5 mi West 39.1 mph 58.7 mph N/A Fog , Rain Heavy Rain
10:40 AM 78.8 °F - 78.8 °F 100% 29.11 in 0.5 mi West 38.0 mph 58.7 mph N/A Fog , Rain Heavy Rain
10:42 AM 78.8 °F - 78.8 °F 100% 29.11 in 0.5 mi West 43.7 mph 57.5 mph N/A Fog , Rain Heavy Rain
10:43 AM 78.8 °F - 78.8 °F 100% 29.11 in 0.5 mi West 44.9 mph 55.2 mph N/A Fog , Rain Heavy Rain
10:44 AM 78.8 °F - 78.8 °F 100% 29.11 in 0.5 mi West 46.0 mph 57.5 mph N/A Fog , Rain Heavy Rain
10:45 AM 78.8 °F - 78.8 °F 100% 29.11 in 0.8 mi West 44.9 mph 57.5 mph N/A Rain Rain
10:48 AM 78.8 °F - 78.8 °F 100% 29.12 in 1.0 mi West 47.2 mph 59.8 mph N/A Rain Light Rain
10:50 AM 78.8 °F - 78.8 °F 100% 29.12 in 1.5 mi West 48.3 mph 59.8 mph N/A Rain Light Rain
10:51 AM 78.8 °F - 78.8 °F 100% 29.12 in 1.8 mi West 50.6 mph 62.1 mph N/A Rain Light Rain
10:52 AM 78.8 °F - 78.8 °F 100% 29.13 in 2.0 mi West 49.5 mph 62.1 mph N/A Rain Light Rain
10:55 AM 78.1 °F - 78.1 °F 100% 29.13 in 3.0 mi West 48.3 mph 67.9 mph 0.40 in Rain Light Rain
10:59 AM 78.8 °F - 78.8 °F 100% 29.14 in 3.0 mi West 46.0 mph 67.9 mph N/A Rain Light Rain
11:02 AM 78.8 °F - 78.8 °F 100% 29.16 in 2.5 mi West 44.9 mph 67.9 mph N/A Rain Light Rain
11:05 AM 78.8 °F - 78.8 °F 100% 29.17 in 1.8 mi West 46.0 mph 56.4 mph N/A Rain Light Rain
11:09 AM 78.8 °F - 78.8 °F 100% 29.18 in 2.0 mi West 43.7 mph 56.4 mph N/A Rain Light Rain
11:13 AM 78.8 °F - 78.8 °F 100% 29.18 in 3.0 mi West 44.9 mph 56.4 mph N/A Rain Light Rain
11:30 AM 77.0 °F - 77.0 °F 100% 29.20 in 5.0 mi WSW 46.0 mph 57.5 mph N/A Rain Light Rain
11:32 AM 77.0 °F - 77.0 °F 100% 29.20 in 6.0 mi West 42.6 mph 57.5 mph N/A Rain Light Rain
11:40 AM 78.8 °F - 78.8 °F 100% 29.23 in 7.0 mi WSW 43.7 mph 57.5 mph N/A Rain Light Rain
11:48 AM 78.8 °F - 78.8 °F 100% 29.25 in 8.0 mi WSW 43.7 mph 58.7 mph N/A Rain Light Rain
11:55 AM 77.9 °F - 77.9 °F 100% 29.25 in 8.0 mi WSW 42.6 mph 61.0 mph 0.01 in Rain Light Rain
12:30 PM 78.8 °F - 78.8 °F 100% 29.29 in 8.0 mi WSW 38.0 mph 51.8 mph N/A   Light Drizzle
12:41 PM 78.8 °F - 78.8 °F 100% 29.30 in 8.0 mi WSW 38.0 mph 48.3 mph N/A   Light Drizzle
12:44 PM 78.8 °F - 78.8 °F 100% 29.30 in 8.0 mi WSW 40.3 mph 48.3 mph N/A   Light Drizzle
12:45 PM 78.8 °F - 78.8 °F 100% 29.30 in 7.0 mi WSW 40.3 mph 48.3 mph N/A   Light Drizzle
12:46 PM 78.8 °F - 78.8 °F 100% 29.30 in 7.0 mi WSW 38.0 mph 48.3 mph N/A Rain Light Rain
12:55 PM 79.3 °F - 79.3 °F 100% 29.31 in 7.0 mi WSW 36.8 mph 46.0 mph 0.00 in Rain Light Rain
1:14 PM 78.8 °F - 78.8 °F 100% 29.33 in 9.0 mi WSW 31.1 mph 47.2 mph N/A   Mostly Cloudy
1:29 PM 78.8 °F - 78.8 °F 100% 29.33 in 10.0 mi WSW 34.5 mph 47.2 mph N/A   Mostly Cloudy
1:30 PM 80.6 °F 89.3 °F 80.6 °F 100% 29.33 in 10.0 mi WSW 35.7 mph 47.2 mph N/A   Mostly Cloudy
1:32 PM 80.6 °F 89.3 °F 80.6 °F 100% 29.33 in 10.0 mi WSW 35.7 mph 47.2 mph N/A   Mostly Cloudy
1:33 PM 80.6 °F 89.3 °F 80.6 °F 100% 29.33 in 10.0 mi WSW 35.7 mph 47.2 mph N/A   Mostly Cloudy
1:36 PM 80.6 °F 89.3 °F 80.6 °F 100% 29.34 in 10.0 mi WSW 33.4 mph 44.9 mph N/A   Mostly Cloudy
1:37 PM 80.6 °F 89.3 °F 80.6 °F 100% 29.34 in 10.0 mi WSW 31.1 mph 42.6 mph N/A   Mostly Cloudy
1:39 PM 80.6 °F 89.3 °F 80.6 °F 100% 29.34 in 10.0 mi WSW 33.4 mph 43.7 mph N/A   Mostly Cloudy
1:41 PM 80.6 °F 89.3 °F 80.6 °F 100% 29.34 in 10.0 mi WSW 36.8 mph 43.7 mph N/A   Mostly Cloudy
1:55 PM 80.6 °F 89.1 °F 80.2 °F 99% 29.34 in 10.0 mi WSW 35.7 mph 44.9 mph 0.00 in   Mostly Cloudy
2:06 PM 80.6 °F 89.3 °F 80.6 °F 100% 29.35 in 10.0 mi WSW 34.5 mph 42.6 mph N/A   Mostly Cloudy
2:11 PM 80.6 °F 89.3 °F 80.6 °F 100% 29.36 in 8.0 mi WSW 33.4 mph 47.2 mph N/A Rain Light Rain
2:20 PM 80.6 °F 89.3 °F 80.6 °F 100% 29.36 in 9.0 mi West 36.8 mph 44.9 mph N/A   Mostly Cloudy
2:29 PM 80.6 °F 89.3 °F 80.6 °F 100% 29.37 in 10.0 mi WSW 36.8 mph 44.9 mph N/A   Mostly Cloudy
2:30 PM 80.6 °F 89.3 °F 80.6 °F 100% 29.37 in 10.0 mi WSW 33.4 mph 44.9 mph N/A   Mostly Cloudy
2:32 PM 80.6 °F 89.3 °F 80.6 °F 100% 29.37 in 10.0 mi West 29.9 mph 43.7 mph N/A   Mostly Cloudy
2:38 PM 80.6 °F 89.3 °F 80.6 °F 100% 29.38 in 10.0 mi West 34.5 mph 43.7 mph N/A   Mostly Cloudy
2:51 PM 80.6 °F 89.3 °F 80.6 °F 100% 29.39 in 10.0 mi West 29.9 mph 43.7 mph N/A   Mostly Cloudy
2:55 PM 81.1 °F 90.1 °F 79.7 °F 95% 29.39 in 10.0 mi WSW 29.9 mph 43.7 mph 0.00 in   Mostly Cloudy
3:13 PM 82.4 °F 92.4 °F 78.8 °F 89% 29.39 in 10.0 mi WSW 28.8 mph 44.9 mph N/A   Scattered Clouds
3:26 PM 82.4 °F 92.4 °F 78.8 °F 89% 29.40 in 10.0 mi WSW 29.9 mph 40.3 mph N/A   Mostly Cloudy
3:55 PM 80.8 °F 89.1 °F 79.5 °F 96% 29.42 in 10.0 mi West 28.8 mph 42.6 mph N/A   Mostly Cloudy
3:58 PM 80.6 °F 89.3 °F 80.6 °F 100% 29.43 in 10.0 mi West 25.3 mph 36.8 mph N/A   Mostly Cloudy
4:52 PM 80.6 °F 88.1 °F 78.8 °F 94% 29.46 in 10.0 mi SW 32.2 mph 38.0 mph N/A Rain Light Rain
4:55 PM 80.4 °F 88.1 °F 79.5 °F 97% 29.47 in 10.0 mi WSW 29.9 mph 38.0 mph 0.00 in Rain Light Rain
5:08 PM 80.6 °F 89.3 °F 80.6 °F 100% 29.48 in 10.0 mi WSW 25.3 mph 36.8 mph N/A   Partly Cloudy
5:49 PM 80.6 °F 88.1 °F 78.8 °F 94% 29.50 in 10.0 mi WSW 25.3 mph 34.5 mph N/A Rain Light Rain
5:55 PM 80.2 °F 87.1 °F 78.8 °F 95% 29.51 in 10.0 mi WSW 21.9 mph 33.4 mph 0.00 in Rain Light Rain
5:59 PM 80.6 °F 88.1 °F 78.8 °F 94% 29.51 in 10.0 mi WSW 21.9 mph 33.4 mph N/A   Partly Cloudy
6:55 PM 80.6 °F 87.7 °F 78.1 °F 92% 29.55 in 10.0 mi WSW 19.6 mph 27.6 mph 0.00 in   Clear
7:10 PM 80.6 °F 88.1 °F 78.8 °F 94% 29.57 in 10.0 mi WSW 25.3 mph 32.2 mph N/A Rain Light Rain
7:23 PM 78.8 °F - 78.8 °F 100% 29.57 in 10.0 mi SW 19.6 mph 26.5 mph N/A   Partly Cloudy
7:55 PM 79.3 °F - 78.8 °F 98% 29.59 in 10.0 mi WSW 20.7 mph 26.5 mph 0.03 in   Clear
8:55 PM 79.3 °F - 76.8 °F 92% 29.63 in 10.0 mi WSW 20.7 mph 26.5 mph N/A   Clear
9:55 PM 79.7 °F - 74.5 °F 84% 29.65 in 10.0 mi WSW 19.6 mph 25.3 mph N/A   Clear
10:55 PM 79.9 °F - 75.6 °F 87% 29.68 in 10.0 mi West 17.3 mph 26.5 mph N/A   Clear
11:55 PM 79.7 °F - 74.3 °F 83% 29.70 in 10.0 mi West 18.4 mph 27.6 mph N/A   Scattered Clouds